Location: Unspecified
(0.0000°N, 0.0000°E)
Time: 18:53:41
(UTC+00:00)

deb Explorer IX - Pass Details

Date: 28 November 2019
Orbit: 545 x 1105 km, 38.8° (Epoch: 05 December)

Event Time Altitude Azimuth Distance (km) Brightness Sun altitude
Rises 06:07:12 0° 300° (WNW) 3,139 ? 4.5°
Reaches altitude 10° 06:09:53 10° 293° (WNW) 2,127 ? 5.1°
Maximum altitude 06:14:29 42° 223° (SW) 885 ? 6.2°
Drops below altitude 10° 06:18:35 10° 151° (SSE) 1,888 ? 7.2°
Sets 06:20:50 0° 143° (SE) 2,745 ? 7.7°
